Regional Weather Roundup
Issued by NWS Kansas City/Pleasant Hill, MO

Home | Current Version | Previous Version | Graphics & Text | Print | Product List | Glossary Off
Versions: 1 2 3 4 5 6 7 8 9 10 11 12 13 14 15 16 17 18 19 20 21 22 23 24 25 26 27 28 29 30 31 32 33 34 35 36 37 38 39 40 41 42 43 44 45 46 47 48 49 50

000
ASUS43 KEAX 180604
RWREAX

WEATHER ROUNDUP FOR EASTERN KANSAS AND NORTHWEST MISSOURI
NATIONAL WEATHER SERVICE KANSAS CITY/PLEASANT HILL MO
100 AM CDT SAT APR 18 2015

KSZ040-057-103>105-MOZ028-029-037-043-180700-
...KANSAS CITY METROPOLITAN AREA...

CITY           SKY/WX    TMP DP  RH WIND       PRES   REMARKS
K.C. INTL      CLOUDY    64  57  78 E8        29.97F
6HR MIN TEMP:  62; 6HR MAX TEMP:  70; 6HR PCP:  0.01;

K.C. DOWNTOWN  FAIR      65  58  78 NE3       29.96F
6HR MIN TEMP:  63; 6HR MAX TEMP:  75;

LEES SUMMIT    FAIR      64  57  78 CALM      29.97F
6HR MIN TEMP:  63; 6HR MAX TEMP:  75;

OLATHE - IXD   FAIR      64  58  80 E6        29.97S
6HR MIN TEMP:  62; 6HR MAX TEMP:  73;

OLATHE - OJC   FAIR      65  59  81 NE3       29.96F
6HR MIN TEMP:  63; 6HR MAX TEMP:  72;

LAWRENCE       FAIR      59  57  93 SE3       29.97R

$$

MOZ001>008-011>017-020>025-030>033-038>040-044>046-053-054-180700-
...NORTHERN AND CENTRAL MISSOURI...

CITY           SKY/WX    TMP DP  RH WIND       PRES   REMARKS
ST. JOSEPH     FAIR      61  56  83 CALM      29.98S
6HR MIN TEMP:  59; 6HR MAX TEMP:  74;

MOSBY          FAIR      64  55  72 E5        29.97F
WARRENSBURG    FAIR      63  57  82 NE5       29.96F
WHITEMAN AFB   FAIR      65  55  70 SE2       29.96F
6HR MIN TEMP:  63; 6HR MAX TEMP:  74;

CLINTON        FAIR      64  61  88 MISG      29.97F
SEDALIA        FAIR      66  55  67 E3        29.98F
6HR MIN TEMP:  66; 6HR MAX TEMP:  76;

WARSAW         NOT AVBL
MARSHALL       FAIR      68  57  68 E6        29.99F
CHILLICOTHE      N/A     67  58  72 SW10G18   30.02R
6HR MIN TEMP:  62; 6HR MAX TEMP:  76;

MOBERLY        FAIR      64  54  68 E7        30.01F
KIRKSVILLE     FAIR      64  55  72 SE6       30.01F
6HR MIN TEMP:  62; 6HR MAX TEMP:  74;


$$

MOZ041-047>049-056>058-063>065-088>090-097-180700-
...EASTERN AND SOUTHERN MISSOURI...

CITY           SKY/WX    TMP DP  RH WIND       PRES   REMARKS
ST. LOUIS INTL FAIR      66  55  67 S3        30.03R
6HR MIN TEMP:  64; 6HR MAX TEMP:  75;

SPIRIT OF STL  FAIR      59  55  87 CALM      30.01S
COLUMBIA       FAIR      66  56  70 E7        29.99F
JEFFERSON CITY FAIR      67  57  70 E6        29.99S
MEXICO         FAIR      63  59  88 CALM      30.01S
HANNIBAL       FAIR      66  50  55 S5        30.02R
ROLLA          FAIR      65  55  70 SE10      30.01R
LEBANON        FAIR      64  59  82 S7        30.01S
OSAGE BEACH    FAIR      64  54  68 SE5       29.99S
SPRINGFIELD    FAIR      65  59  81 SE9       29.99S
BRANSON        FAIR      63  59  88 CALM      30.02S
NEVADA         FAIR      63  59  88 CALM      29.97S
JOPLIN         FAIR      63  60  90 SE5       29.97R
WEST PLAINS    MOCLDY    63  59  87 CALM      30.04S

$$

IAZ060-094-KSZ022-034>040-054-083-096-NEZ052-066-093-180700-
...KANSAS...SOUTHEAST NEBRASKA AND IOWA...

CITY           SKY/WX    TMP DP  RH WIND       PRES   REMARKS
TOPEKA         FAIR      58  56  93 CALM      29.96S
6HR MIN TEMP:  58; 6HR MAX TEMP:  72;

MANHATTAN      FAIR      63  57  81 NE3       29.95S
EMPORIA        FAIR      60  58  92 S5        29.96S
CHANUTE        FAIR      62  60  93 E3        29.96S
WICHITA        CLOUDY    64  58  80 E5        29.95S
OMAHA          CLOUDY    64  55  72 NW5       29.97F
LINCOLN        MOCLDY    64  56  75 E6        29.97F
FALLS CITY     FAIR      60  55  83 E5        29.96F
LAMONI         FAIR      66  53  63 E6        30.00S
DES MOINES     CLOUDY    68  52  56 E5        30.00F

$$



USA.gov is the U.S. government's official web portal to all federal, state and local government web resources and services.